Home > Weather > Nablus > Past weeks

Flag for Palestinian Territories Past Weather in Nablus, West Bank, Palestinian Territories — Yesterday and Last 2 Weeks

Now
86 °F

Passing clouds.


Feels Like: 92 °F
Forecast: 70 / 86 °F
Wind: 8 mph from Northwest

Location: Ben Gurion International Airport

Current Time: Jul 27, 2016 at 6:27:07 PM

Latest Report: Jul 27, 2016 at 5:50 PM


Visibility: N/A

Pressure: 29.71 "Hg (27.97 "Hg at 534m altitude)

Humidity: 62%

Dew Point: 72 °F

Location of NablusLocation

Past Weather in Nablus — Graph

°F

Nablus Temperature Yesterday

Maximum temperature yesterday: 91 °F (at 12:20 PM)
Minimum temperature yesterday: 77 °F (at 2:20 AM)
Average temperature yesterday: 83 °F

High & Low Weather Summary for the Past Weeks

 TemperatureHumidityPressure
High91 °F (Jul 13, 10:20 AM)84% (Jul 12, 10:20 PM)29.89 "Hg (Jul 12, 10:20 PM)
Low73 °F (Jul 22, 5:20 AM)20% (Jul 26, 8:50 PM)29.65 "Hg (Jul 19, 11:20 AM)
Average83 °F64%29.75 "Hg
* Reported Jul 12 5:20 PM — Jul 27 5:20 PM, Nablus, Weather by CustomWeather, © 2016

Note: Actual official high and low records may vary slightly from our data, if they occured in-between our weather recording intervals... More about our weather records

Advertising

Nablus Weather History for the Previous 24 Hours

Scroll right to see more
 ConditionsComfort  
Time TempWeatherWind HumidityBarometerVisibility
5:20 PM
Wed, Jul 27
86 °FPassing clouds.10 mph62%29.71 "HgN/A
4:50 PM88 °FPassing clouds.12 mph59%29.71 "HgN/A
4:20 PM88 °FPassing clouds.12 mph59%29.71 "HgN/A
3:50 PM86 °FPassing clouds.13 mph62%29.71 "HgN/A
3:20 PM88 °FPassing clouds.13 mph59%29.71 "HgN/A
2:50 PM88 °FPassing clouds.12 mph59%29.74 "HgN/A
2:20 PM90 °FPassing clouds.12 mph55%29.74 "HgN/A
1:50 PM88 °FPassing clouds.12 mph59%29.74 "HgN/A
1:20 PM90 °FPassing clouds.10 mph52%29.74 "HgN/A
12:50 PM90 °FPassing clouds.13 mph55%29.74 "HgN/A
12:20 PM90 °FPassing clouds.12 mph55%29.74 "HgN/A
11:50 AM90 °FPassing clouds.10 mph55%29.74 "HgN/A
11:20 AM88 °FPassing clouds.6 mph59%29.74 "HgN/A
10:50 AM88 °FPassing clouds.5 mph55%29.74 "HgN/A
10:20 AM86 °FPassing clouds.3 mph59%29.74 "HgN/A
9:50 AM84 °FScattered clouds.6 mph62%29.77 "HgN/A
9:20 AM82 °FScattered clouds.6 mph70%29.77 "HgN/A
8:50 AM82 °FPartly sunny.5 mph70%29.74 "Hg6 mi
8:20 AM81 °FPartly sunny.7 mph74%29.74 "Hg6 mi
7:50 AM81 °FScattered clouds.7 mph70%29.77 "Hg6 mi
7:20 AM79 °FScattered clouds.6 mph74%29.74 "Hg6 mi
6:50 AM77 °FPassing clouds.7 mph79%29.74 "HgN/A
6:20 AM75 °FPassing clouds.9 mph83%29.74 "HgN/A
5:50 AM75 °FPassing clouds.7 mph83%29.74 "HgN/A
5:20 AM75 °FPassing clouds.8 mph78%29.74 "HgN/A
4:50 AM77 °FPassing clouds.7 mph74%29.74 "HgN/A
4:20 AM77 °FPassing clouds.6 mph79%29.74 "HgN/A
3:50 AM77 °FPassing clouds.6 mph79%29.74 "HgN/A
3:20 AM77 °FPassing clouds.6 mph79%29.74 "HgN/A
2:50 AM77 °FPassing clouds.7 mph79%29.74 "HgN/A
2:20 AM79 °FClear.3 mph79%29.74 "Hg10 mi
1:50 AM79 °FClear.3 mph84%29.74 "Hg10 mi
1:20 AM79 °FClear.2 mph84%29.74 "Hg10 mi
12:50 AM79 °FClear.2 mph84%29.74 "Hg10 mi
12:20 AM79 °FClear.5 mph84%29.74 "Hg10 mi
11:50 PM
Tue, Jul 26
79 °FClear.5 mph84%29.74 "Hg10 mi
11:20 PM81 °FClear.3 mph79%29.74 "Hg10 mi
10:50 PM81 °FClear.2 mph79%29.74 "Hg10 mi
10:20 PM81 °FClear.2 mph79%29.74 "Hg10 mi
9:50 PM81 °FClear.3 mph79%29.74 "Hg10 mi
9:20 PM81 °FClear.5 mph79%29.74 "Hg10 mi
8:50 PM82 °FClear.6 mph20%29.74 "Hg10 mi
8:20 PM82 °FSunny.6 mph74%29.71 "Hg10 mi
7:50 PM82 °FPassing clouds.8 mph74%29.71 "HgN/A
7:20 PM84 °FPassing clouds.8 mph70%29.71 "HgN/A
6:50 PM86 °FSunny.9 mph66%29.71 "Hg10 mi
6:20 PM86 °FSunny.8 mph62%29.71 "Hg10 mi
Weather by CustomWeather, © 2016

See weather overviewHow to use our weather pages